| time (UTC) | temp C | wind direction | speed KPH | gust KPH | rain 1hr cm | rain 24hr cm | rain mn cm | humidity % | barometer mb |
| 20260507201600 | 8 | 228 | 9.7 | 16.1 | 0.00 | 2.06 | 2.06 | 96 | 1003.5 |
| 20260507201042 | 8 | 224 | 11.3 | 14.5 | 0.00 | 2.06 | 2.06 | 96 | 1003.4 |
| 20260507200546 | 8 | 226 | 9.7 | 16.1 | 0.00 | 2.06 | 2.06 | 97 | 1003.3 |
| 20260507200105 | 8 | 219 | 9.7 | 17.7 | 0.00 | 2.06 | 2.06 | 97 | 1003.3 |
| 20260507195548 | 8 | 219 | 9.7 | 19.3 | 0.00 | 2.06 | 2.06 | 97 | 1003.3 |
| 20260507195042 | 8 | 234 | 11.3 | 19.3 | 0.00 | 2.06 | 2.06 | 97 | 1003.5 |
| 20260507194556 | 8 | 238 | 11.3 | 17.7 | 0.00 | 2.06 | 2.06 | 97 | 1003.5 |
| 20260507194041 | 8 | 234 | 11.3 | 16.1 | 0.00 | 2.06 | 2.06 | 97 | 1003.6 |
| 20260507193541 | 8 | 244 | 11.3 | 16.1 | 0.00 | 2.06 | 2.06 | 98 | 1003.6 |
| 20260507193125 | 8 | 239 | 9.7 | 16.1 | 0.00 | 2.06 | 2.06 | 98 | 1003.5 |
| 20260507192542 | 8 | 245 | 8.0 | 16.1 | 0.00 | 2.06 | 2.06 | 98 | 1003.6 |
| 20260507192047 | 8 | 253 | 11.3 | 16.1 | 0.00 | 2.06 | 2.06 | 98 | 1003.6 |
| 20260507191559 | 8 | 237 | 9.7 | 14.5 | 0.00 | 2.06 | 2.06 | 98 | 1003.7 |
| 20260507191046 | 8 | 229 | 11.3 | 16.1 | 0.00 | 2.06 | 2.06 | 98 | 1003.6 |
| 20260507190547 | 8 | 235 | 11.3 | 16.1 | 0.00 | 2.06 | 2.06 | 99 | 1003.6 |
| 20260507190054 | 7 | 223 | 11.3 | 16.1 | 0.00 | 2.06 | 2.06 | 99 | 1003.6 |
| 20260507185544 | 7 | 234 | 9.7 | 14.5 | 0.00 | 2.06 | 2.06 | 99 | 1003.6 |
| 20260507185048 | 8 | 234 | 8.0 | 12.9 | 0.00 | 2.06 | 2.06 | 99 | 1003.4 |
| 20260507184554 | 8 | 219 | 8.0 | 14.5 | 0.00 | 2.06 | 2.06 | 99 | 1003.4 |
| 20260507184043 | 8 | 238 | 8.0 | 14.5 | 0.00 | 2.06 | 2.06 | 100 | 1003.4 |
| 20260507183544 | 8 | 250 | 8.0 | 14.5 | 0.00 | 2.06 | 2.06 | 100 | 1003.3 |
| 20260507183102 | 8 | 236 | 6.4 | 12.9 | 0.00 | 2.06 | 2.06 | 100 | 1003.3 |
| 20260507182545 | 7 | 253 | 8.0 | 12.9 | 0.00 | 2.06 | 2.06 | 100 | 1003.4 |
| 20260507182045 | 8 | 238 | 8.0 | 12.9 | 0.00 | 2.06 | 2.06 | 100 | 1003.5 |
| 20260507181554 | 7 | 226 | 8.0 | 12.9 | 0.00 | 2.06 | 2.06 | 100 | 1003.5 |
| 20260507181044 | 8 | 232 | 4.8 | 12.9 | 0.00 | 2.06 | 2.06 | 100 | 1003.5 |
| 20260507180545 | 8 | 250 | 6.4 | 12.9 | 0.00 | 2.06 | 2.06 | 100 | 1003.3 |
| 20260507180056 | 8 | 248 | 6.4 | 12.9 | 0.00 | 2.06 | 2.06 | 100 | 1003.4 |
| 20260507175544 | 8 | 313 | 4.8 | 11.3 | 0.00 | 2.06 | 2.06 | 100 | 1003.4 |
| 20260507175046 | 8 | 245 | 6.4 | 12.9 | 0.00 | 2.06 | 2.06 | 100 | 1003.3 |
| 20260507174554 | 8 | 265 | 4.8 | 14.5 | 0.00 | 2.06 | 2.06 | 100 | 1003.2 |
| 20260507174046 | 8 | 270 | 8.0 | 14.5 | 0.00 | 2.06 | 2.06 | 100 | 1003.2 |
| 20260507173545 | 8 | 276 | 9.7 | 14.5 | 0.00 | 2.06 | 2.06 | 100 | 1003.2 |
| 20260507173130 | 7 | 300 | 3.2 | 14.5 | 0.00 | 2.06 | 2.06 | 100 | 1003.2 |
| 20260507172543 | 7 | 245 | 4.8 | 14.5 | 0.00 | 2.06 | 2.06 | 100 | 1003.5 |
| 20260507172044 | 8 | 238 | 4.8 | 14.5 | 0.00 | 2.06 | 2.06 | 100 | 1003.5 |
| 20260507171556 | 8 | 298 | 6.4 | 14.5 | 0.00 | 2.06 | 2.06 | 100 | 1003.4 |
| 20260507171045 | 8 | 301 | 6.4 | 12.9 | 0.00 | 2.06 | 2.06 | 100 | 1003.5 |
| 20260507170545 | 8 | 279 | 6.4 | 14.5 | 0.00 | 2.06 | 2.06 | 100 | 1003.6 |
| 20260507170053 | 8 | 258 | 6.4 | 16.1 | 0.00 | 2.06 | 2.06 | 100 | 1003.5 |
| 20260507165544 | 8 | 287 | 6.4 | 16.1 | 0.00 | 2.06 | 2.06 | 100 | 1003.6 |
| 20260507165044 | 8 | 292 | 8.0 | 12.9 | 0.00 | 2.06 | 2.06 | 100 | 1003.7 |
| 20260507164604 | 8 | 311 | 4.8 | 14.5 | 0.00 | 2.06 | 2.06 | 100 | 1003.6 |
| 20260507164045 | 7 | 325 | 4.8 | 14.5 | 0.00 | 2.06 | 2.06 | 100 | 1003.7 |
| 20260507163545 | 7 | 292 | 9.7 | 16.1 | 0.03 | 2.06 | 2.06 | 100 | 1003.9 |
| 20260507163054 | 7 | 274 | 9.7 | 16.1 | 0.03 | 2.06 | 2.06 | 100 | 1004.0 |
| 20260507162544 | 7 | 304 | 8.0 | 16.1 | 0.05 | 2.06 | 2.06 | 100 | 1003.9 |
| 20260507162045 | 7 | 305 | 11.3 | 16.1 | 0.05 | 2.06 | 2.06 | 100 | 1004.0 |
| 20260507161607 | 7 | 280 | 11.3 | 16.1 | 0.05 | 2.06 | 2.06 | 100 | 1003.9 |
| 20260507161045 | 7 | 342 | 6.4 | 14.5 | 0.08 | 2.06 | 2.06 | 100 | 1003.1 |
| 20260507160545 | 7 | 297 | 6.4 | 12.9 | 0.05 | 2.06 | 2.06 | 100 | 1003.5 |
| 20260507160103 | 7 | 296 | 4.8 | 12.9 | 0.08 | 2.06 | 2.06 | 100 | 1004.1 |
| 20260507155544 | 7 | 290 | 1.6 | 9.7 | 0.13 | 2.06 | 2.06 | 100 | 1004.2 |
| 20260507155045 | 7 | 271 | 3.2 | 12.9 | 0.18 | 2.06 | 2.06 | 100 | 1004.5 |
| 20260507154550 | 6 | 263 | 3.2 | 16.1 | 0.18 | 2.06 | 2.06 | 100 | 1004.5 |
| 20260507154042 | 6 | 254 | 8.0 | 16.1 | 0.20 | 2.06 | 2.06 | 100 | 1004.5 |
| 20260507153542 | 7 | 231 | 11.3 | 14.5 | 0.23 | 2.03 | 2.03 | 100 | 1004.7 |
| 20260507153055 | 7 | 231 | 6.4 | 12.9 | 0.25 | 2.03 | 2.03 | 100 | 1004.5 |
| 20260507152548 | 7 | 225 | 9.7 | 12.9 | 0.25 | 2.01 | 2.01 | 100 | 1004.2 |
| 20260507152045 | 7 | 225 | 4.8 | 9.7 | 0.25 | 2.01 | 2.01 | 100 | 1004.0 |
| 20260507151549 | 7 | 240 | 4.8 | 8.0 | 0.25 | 2.01 | 2.01 | 100 | 1003.6 |
| 20260507151042 | 7 | 222 | 1.6 | 4.8 | 0.23 | 1.98 | 1.98 | 100 | 1003.5 |
| 20260507150550 | 7 | 221 | 0.0 | 6.4 | 0.25 | 1.98 | 1.98 | 100 | 1003.5 |
| 20260507150053 | 7 | 221 | 1.6 | 8.0 | 0.20 | 1.96 | 1.96 | 100 | 1003.7 |
| 20260507145542 | 7 | 221 | 4.8 | 9.7 | 0.15 | 1.88 | 1.88 | 100 | 1004.0 |
| 20260507145044 | 7 | 223 | 4.8 | 9.7 | 0.13 | 1.88 | 1.88 | 100 | 1004.3 |
| 20260507144601 | 7 | 203 | 6.4 | 9.7 | 0.10 | 1.85 | 1.85 | 100 | 1004.5 |
| 20260507144042 | 7 | 199 | 4.8 | 11.3 | 0.08 | 1.80 | 1.80 | 100 | 1004.5 |
| 20260507143541 | 7 | 221 | 4.8 | 12.9 | 0.08 | 1.78 | 1.78 | 100 | 1004.2 |
| 20260507143051 | 7 | 221 | 6.4 | 12.9 | 0.10 | 1.78 | 1.78 | 100 | 1004.2 |
| 20260507142541 | 7 | 240 | 6.4 | 11.3 | 0.13 | 1.75 | 1.75 | 100 | 1004.2 |
| 20260507142045 | 7 | 200 | 3.2 | 8.0 | 0.18 | 1.75 | 1.75 | 100 | 1004.3 |
| 20260507141610 | 7 | 0 | 1.6 | 4.8 | 0.18 | 1.75 | 1.75 | 100 | 1003.7 |
| 20260507141042 | 7 | 148 | 0.0 | 4.8 | 0.20 | 1.75 | 1.75 | 100 | 1003.7 |
| 20260507140542 | 7 | 0 | 0.0 | 8.0 | 0.20 | 1.73 | 1.73 | 100 | 1003.7 |
| 20260507140058 | 7 | 148 | 1.6 | 8.0 | 0.25 | 1.73 | 1.73 | 100 | 1003.7 |
| 20260507135546 | 7 | 148 | 3.2 | 8.0 | 0.28 | 1.73 | 1.73 | 100 | 1004.0 |
| 20260507135045 | 7 | 148 | 1.6 | 4.8 | 0.30 | 1.73 | 1.73 | 100 | 1004.0 |
| 20260507134601 | 7 | 148 | 1.6 | 4.8 | 0.36 | 1.73 | 1.73 | 100 | 1003.7 |
| 20260507134041 | 7 | 0 | 1.6 | 9.7 | 0.41 | 1.70 | 1.70 | 100 | 1004.0 |
| 20260507133542 | 7 | 148 | 1.6 | 12.9 | 0.46 | 1.68 | 1.68 | 100 | 1004.2 |
| 20260507133054 | 7 | 142 | 4.8 | 14.5 | 0.46 | 1.65 | 1.65 | 100 | 1004.2 |
| 20260507132541 | 7 | 190 | 6.4 | 14.5 | 0.46 | 1.57 | 1.57 | 100 | 1004.6 |
| 20260507132041 | 7 | 205 | 9.7 | 14.5 | 0.51 | 1.57 | 1.57 | 100 | 1005.1 |
| 20260507131556 | 7 | 192 | 4.8 | 11.3 | 0.56 | 1.55 | 1.55 | 100 | 1004.9 |
| 20260507131045 | 7 | 198 | 4.8 | 9.7 | 0.53 | 1.52 | 1.52 | 100 | 1004.6 |
| 20260507130545 | 7 | 147 | 0.0 | 4.8 | 0.58 | 1.50 | 1.50 | 100 | 1004.6 |
| 20260507130058 | 7 | 0 | 0.0 | 11.3 | 0.64 | 1.47 | 1.47 | 100 | 1004.5 |
| 20260507125541 | 7 | 147 | 1.6 | 12.9 | 0.71 | 1.42 | 1.42 | 100 | 1004.4 |
| 20260507125045 | 7 | 155 | 4.8 | 16.1 | 0.71 | 1.40 | 1.40 | 100 | 1004.7 |
| 20260507124547 | 7 | 163 | 6.4 | 16.1 | 0.71 | 1.35 | 1.35 | 100 | 1005.1 |
| 20260507124042 | 7 | 161 | 6.4 | 16.1 | 0.64 | 1.30 | 1.30 | 100 | 1005.1 |
| 20260507123542 | 7 | 181 | 8.0 | 16.1 | 0.58 | 1.22 | 1.22 | 100 | 1005.1 |
| 20260507123054 | 7 | 189 | 9.7 | 19.3 | 0.53 | 1.17 | 1.17 | 100 | 1005.1 |
| 20260507122541 | 7 | 201 | 9.7 | 20.9 | 0.46 | 1.12 | 1.12 | 100 | 1005.2 |
| 20260507122042 | 7 | 201 | 11.3 | 20.9 | 0.41 | 1.04 | 1.04 | 100 | 1005.1 |
| 20260507121554 | 7 | 183 | 9.7 | 16.1 | 0.36 | 0.99 | 0.99 | 100 | 1004.9 |
| 20260507121043 | 7 | 188 | 6.4 | 22.5 | 0.33 | 0.97 | 0.97 | 100 | 1004.7 |
| 20260507120542 | 7 | 176 | 8.0 | 24.1 | 0.28 | 0.91 | 0.91 | 100 | 1004.5 |
| 20260507120052 | 7 | 178 | 12.9 | 24.1 | 0.18 | 0.81 | 0.81 | 100 | 1005.7 |
| 20260507115541 | 7 | 190 | 12.9 | 27.4 | 0.08 | 0.71 | 0.71 | 100 | 1005.8 |
| 20260507115045 | 7 | 200 | 14.5 | 29.0 | 0.03 | 0.66 | 0.66 | 100 | 1005.4 |
| 20260507114556 | 7 | 203 | 17.7 | 29.0 | 0.00 | 0.64 | 0.64 | 100 | 1005.5 |
| 20260507114047 | 7 | 178 | 16.1 | 32.2 | 0.00 | 0.64 | 0.64 | 100 | 1005.2 |
| 20260507113546 | 8 | 189 | 16.1 | 32.2 | 0.00 | 0.64 | 0.64 | 100 | 1005.1 |
| 20260507113052 | 8 | 184 | 14.5 | 29.0 | 0.00 | 0.64 | 0.64 | 100 | 1005.0 |
| 20260507112545 | 8 | 194 | 16.1 | 32.2 | 0.00 | 0.64 | 0.64 | 100 | 1004.7 |
| 20260507112042 | 8 | 184 | 16.1 | 32.2 | 0.00 | 0.64 | 0.64 | 100 | 1004.8 |
| 20260507111600 | 8 | 166 | 14.5 | 30.6 | 0.00 | 0.64 | 0.64 | 100 | 1004.5 |
| 20260507111041 | 8 | 148 | 9.7 | 30.6 | 0.00 | 0.64 | 0.64 | 100 | 1004.5 |
| 20260507110542 | 8 | 148 | 14.5 | 37.0 | 0.00 | 0.64 | 0.64 | 100 | 1004.8 |
| 20260507110052 | 8 | 159 | 16.1 | 37.0 | 0.00 | 0.64 | 0.64 | 100 | 1005.0 |
| 20260507105541 | 8 | 158 | 14.5 | 30.6 | 0.00 | 0.64 | 0.64 | 100 | 1005.2 |
| 20260507105041 | 8 | 175 | 12.9 | 30.6 | 0.00 | 0.64 | 0.64 | 100 | 1004.9 |
| 20260507104549 | 8 | 141 | 16.1 | 30.6 | 0.00 | 0.64 | 0.64 | 100 | 1004.6 |
| 20260507104041 | 8 | 155 | 12.9 | 33.8 | 0.00 | 0.64 | 0.64 | 100 | 1004.9 |
| 20260507103542 | 8 | 157 | 16.1 | 35.4 | 0.00 | 0.64 | 0.64 | 100 | 1005.1 |
| 20260507103049 | 8 | 168 | 17.7 | 35.4 | 0.00 | 0.64 | 0.64 | 100 | 1005.2 |
| 20260507102545 | 8 | 180 | 14.5 | 35.4 | 0.00 | 0.64 | 0.64 | 100 | 1005.2 |
| 20260507102044 | 8 | 146 | 14.5 | 35.4 | 0.00 | 0.64 | 0.64 | 100 | 1005.2 |
| 20260507101602 | 8 | 161 | 16.1 | 35.4 | 0.00 | 0.64 | 0.64 | 100 | 1005.4 |
| 20260507101045 | 8 | 170 | 19.3 | 48.3 | 0.00 | 0.64 | 0.64 | 100 | 1005.3 |
| 20260507100545 | 8 | 194 | 19.3 | 48.3 | 0.00 | 0.64 | 0.64 | 100 | 1005.4 |
| 20260507100053 | 8 | 180 | 16.1 | 41.8 | 0.00 | 0.64 | 0.64 | 100 | 1005.3 |
| 20260507095542 | 8 | 205 | 19.3 | 41.8 | 0.00 | 0.64 | 0.64 | 100 | 1005.2 |
| 20260507095042 | 8 | 175 | 20.9 | 38.6 | 0.00 | 0.64 | 0.64 | 100 | 1005.1 |
| 20260507094549 | 8 | 175 | 19.3 | 35.4 | 0.00 | 0.64 | 0.64 | 100 | 1005.0 |
| 20260507094042 | 8 | 154 | 19.3 | 35.4 | 0.00 | 0.64 | 0.64 | 100 | 1004.7 |
| 20260507093541 | 8 | 165 | 16.1 | 32.2 | 0.00 | 0.64 | 0.64 | 100 | 1004.5 |
| 20260507093051 | 8 | 167 | 16.1 | 38.6 | 0.00 | 0.64 | 0.64 | 100 | 1004.7 |
| 20260507092542 | 8 | 153 | 16.1 | 38.6 | 0.00 | 0.64 | 0.64 | 100 | 1004.8 |
| 20260507092043 | 8 | 134 | 14.5 | 38.6 | 0.00 | 0.64 | 0.64 | 100 | 1004.8 |
| 20260507091549 | 8 | 148 | 16.1 | 38.6 | 0.00 | 0.64 | 0.64 | 100 | 1005.0 |
| 20260507091044 | 8 | 179 | 19.3 | 43.5 | 0.00 | 0.64 | 0.64 | 100 | 1005.1 |
| 20260507090543 | 9 | 186 | 16.1 | 43.5 | 0.00 | 0.64 | 0.64 | 100 | 1005.3 |
| 20260507090049 | 8 | 168 | 17.7 | 33.8 | 0.00 | 0.64 | 0.64 | 100 | 1005.2 |
| 20260507085545 | 8 | 147 | 16.1 | 41.8 | 0.00 | 0.64 | 0.64 | 100 | 1005.2 |
| 20260507085045 | 9 | 174 | 19.3 | 51.5 | 0.00 | 0.64 | 0.64 | 100 | 1005.1 |
| 20260507084549 | 9 | 170 | 24.1 | 54.7 | 0.00 | 0.64 | 0.64 | 100 | 1005.4 |
| 20260507084045 | 9 | 156 | 25.7 | 54.7 | 0.00 | 0.64 | 0.64 | 100 | 1005.3 |
| 20260507083545 | 9 | 179 | 22.5 | 48.3 | 0.00 | 0.64 | 0.64 | 100 | 1005.3 |
| 20260507083050 | 9 | 154 | 22.5 | 46.7 | 0.00 | 0.64 | 0.64 | 100 | 1005.1 |
| 20260507082545 | 9 | 196 | 22.5 | 46.7 | 0.00 | 0.64 | 0.64 | 100 | 1005.2 |
| 20260507082045 | 9 | 182 | 24.1 | 53.1 | 0.00 | 0.64 | 0.64 | 99 | 1005.1 |
| 20260507081550 | 10 | 182 | 27.4 | 53.1 | 0.00 | 0.64 | 0.64 | 99 | 1005.4 |
| 20260507081044 | 10 | 161 | 17.7 | 41.8 | 0.00 | 0.64 | 0.64 | 99 | 1005.2 |
| 20260507080545 | 10 | 200 | 20.9 | 41.8 | 0.00 | 0.64 | 0.64 | 99 | 1005.3 |
| 20260507080050 | 10 | 180 | 20.9 | 46.7 | 0.00 | 0.64 | 0.64 | 99 | 1005.3 |
| 20260507075544 | 10 | 177 | 22.5 | 49.9 | 0.00 | 0.64 | 0.64 | 99 | 1005.3 |
| 20260507075044 | 10 | 169 | 24.1 | 49.9 | 0.00 | 0.64 | 0.64 | 99 | 1005.4 |
| 20260507074554 | 10 | 169 | 17.7 | 46.7 | 0.03 | 0.64 | 0.64 | 99 | 1005.4 |
| 20260507074044 | 10 | 138 | 24.1 | 49.9 | 0.03 | 0.64 | 0.64 | 99 | 1005.3 |
| 20260507073542 | 10 | 161 | 20.9 | 49.9 | 0.03 | 0.64 | 0.64 | 99 | 1005.5 |
| 20260507073051 | 10 | 172 | 22.5 | 45.1 | 0.05 | 0.64 | 0.64 | 99 | 1005.5 |
| 20260507072546 | 10 | 166 | 25.7 | 48.3 | 0.05 | 0.64 | 0.64 | 99 | 1005.5 |
| 20260507072045 | 10 | 119 | 19.3 | 49.9 | 0.08 | 0.64 | 0.64 | 99 | 1005.5 |
| 20260507071551 | 10 | 161 | 25.7 | 57.9 | 0.10 | 0.64 | 0.64 | 99 | 1005.5 |
| 20260507071047 | 10 | 160 | 29.0 | 57.9 | 0.15 | 0.64 | 0.64 | 98 | 1005.4 |
| 20260507070545 | 10 | 172 | 27.4 | 49.9 | 0.18 | 0.64 | 0.64 | 98 | 1005.5 |
| 20260507070054 | 11 | 172 | 25.7 | 49.9 | 0.18 | 0.61 | 0.61 | 99 | 1005.6 |
| 20260507065544 | 11 | 162 | 27.4 | 62.8 | 0.18 | 0.61 | 0.61 | 98 | 1005.5 |
| 20260507065044 | 11 | 159 | 25.7 | 62.8 | 0.18 | 0.61 | 0.61 | 98 | 1005.6 |
| 20260507064607 | 11 | 185 | 27.4 | 53.1 | 0.18 | 0.58 | 0.58 | 98 | 1005.5 |
| 20260507064044 | 11 | 160 | 27.4 | 54.7 | 0.18 | 0.58 | 0.58 | 98 | 1005.4 |
| 20260507063544 | 11 | 150 | 30.6 | 54.7 | 0.20 | 0.58 | 0.58 | 98 | 1005.5 |
| 20260507063053 | 11 | 159 | 29.0 | 54.7 | 0.20 | 0.56 | 0.56 | 98 | 1005.7 |
| 20260507062544 | 12 | 182 | 27.4 | 57.9 | 0.23 | 0.56 | 0.56 | 98 | 1005.5 |
| 20260507062044 | 12 | 163 | 27.4 | 62.8 | 0.20 | 0.56 | 0.56 | 98 | 1005.7 |
| 20260507061552 | 12 | 183 | 33.8 | 62.8 | 0.18 | 0.51 | 0.51 | 98 | 1005.7 |
| 20260507061043 | 12 | 167 | 27.4 | 62.8 | 0.18 | 0.46 | 0.46 | 98 | 1005.8 |
| 20260507060544 | 12 | 163 | 24.1 | 66.0 | 0.18 | 0.43 | 0.43 | 98 | 1005.8 |
| 20260507060050 | 12 | 165 | 32.2 | 66.0 | 0.25 | 0.43 | 0.43 | 98 | 1005.6 |
| 20260507055545 | 12 | 166 | 20.9 | 51.5 | 0.28 | 0.41 | 0.41 | 98 | 1005.7 |
| 20260507055045 | 13 | 182 | 24.1 | 51.5 | 0.30 | 0.41 | 0.41 | 98 | 1005.7 |
| 20260507054604 | 13 | 173 | 27.4 | 49.9 | 0.33 | 0.38 | 0.38 | 98 | 1006.1 |
| 20260507054045 | 12 | 140 | 22.5 | 51.5 | 0.36 | 0.38 | 0.38 | 98 | 1006.2 |
| 20260507053545 | 12 | 178 | 25.7 | 51.5 | 0.36 | 0.36 | 0.36 | 98 | 1006.2 |
| 20260507053049 | 12 | 169 | 25.7 | 49.9 | 0.33 | 0.36 | 0.36 | 98 | 1006.3 |
| 20260507052548 | 12 | 142 | 24.1 | 49.9 | 0.30 | 0.33 | 0.33 | 97 | 1006.6 |
| 20260507052044 | 12 | 179 | 24.1 | 53.1 | 0.30 | 0.33 | 0.33 | 97 | 1006.7 |
| 20260507051550 | 12 | 170 | 27.4 | 53.1 | 0.28 | 0.30 | 0.30 | 97 | 1006.8 |
| 20260507051041 | 12 | 192 | 24.1 | 51.5 | 0.25 | 0.28 | 0.28 | 97 | 1006.8 |
| 20260507050544 | 12 | 167 | 25.7 | 48.3 | 0.20 | 0.23 | 0.23 | 96 | 1006.9 |
| 20260507050052 | 13 | 163 | 22.5 | 51.5 | 0.15 | 0.18 | 0.18 | 96 | 1006.9 |
| 20260507045547 | 13 | 128 | 27.4 | 54.7 | 0.10 | 0.13 | 0.13 | 96 | 1007.1 |
| 20260507045044 | 13 | 159 | 24.1 | 54.7 | 0.08 | 0.08 | 0.08 | 95 | 1007.2 |
| 20260507044550 | 13 | 134 | 24.1 | 54.7 | 0.03 | 0.05 | 0.05 | 94 | 1007.4 |
| 20260507044043 | 13 | 134 | 27.4 | 54.7 | 0.03 | 0.03 | 0.03 | 95 | 1007.3 |
| 20260507043543 | 13 | 192 | 22.5 | 46.7 | 0.00 | 0.00 | 0.00 | 94 | 1007.6 |
| 20260507043100 | 13 | 183 | 24.1 | 46.7 | 0.00 | 0.00 | 0.00 | 94 | 1007.6 |
| 20260507042545 | 13 | 163 | 22.5 | 46.7 | 0.00 | 0.00 | 0.00 | 95 | 1007.9 |
| 20260507042041 | 13 | 162 | 22.5 | 46.7 | 0.00 | 0.00 | 0.00 | 95 | 1007.8 |
| 20260507041603 | 13 | 163 | 24.1 | 41.8 | 0.00 | 0.00 | 0.00 | 94 | 1007.8 |
| 20260507041045 | 13 | 155 | 22.5 | 37.0 | 0.00 | 0.00 | 0.00 | 94 | 1008.1 |
| 20260507040545 | 13 | 165 | 19.3 | 37.0 | 0.00 | 0.00 | 0.00 | 94 | 1008.2 |
| 20260507040058 | 13 | 132 | 20.9 | 46.7 | 0.00 | 0.00 | 0.00 | 94 | 1008.2 |
| 20260507035541 | 13 | 196 | 19.3 | 48.3 | 0.00 | 0.00 | 0.00 | 94 | 1008.5 |
| 20260507035044 | 13 | 144 | 25.7 | 48.3 | 0.00 | 0.00 | 0.00 | 94 | 1008.6 |
| 20260507034557 | 13 | 146 | 22.5 | 49.9 | 0.00 | 0.00 | 0.00 | 94 | 1008.5 |
| 20260507034045 | 13 | 166 | 22.5 | 49.9 | 0.00 | 0.00 | 0.00 | 94 | 1008.5 |
| 20260507033544 | 13 | 144 | 20.9 | 43.5 | 0.00 | 0.00 | 0.00 | 93 | 1008.1 |
| 20260507033052 | 13 | 129 | 19.3 | 41.8 | 0.00 | 0.00 | 0.00 | 93 | 1008.5 |
| 20260507032543 | 13 | 136 | 17.7 | 41.8 | 0.00 | 0.00 | 0.00 | 93 | 1008.9 |
| 20260507032045 | 13 | 130 | 19.3 | 41.8 | 0.00 | 0.00 | 0.00 | 92 | 1009.2 |
| 20260507031549 | 13 | 153 | 19.3 | 41.8 | 0.00 | 0.00 | 0.00 | 92 | 1009.0 |
| 20260507031041 | 13 | 145 | 22.5 | 41.8 | 0.00 | 0.00 | 0.00 | 92 | 1009.3 |
| 20260507030544 | 13 | 146 | 19.3 | 49.9 | 0.00 | 0.00 | 0.00 | 91 | 1009.5 |
| 20260507030056 | 13 | 144 | 24.1 | 49.9 | 0.00 | 0.00 | 0.00 | 91 | 1009.5 |
| 20260507025544 | 13 | 176 | 24.1 | 49.9 | 0.00 | 0.00 | 0.00 | 91 | 1009.8 |
| 20260507025042 | 13 | 144 | 19.3 | 49.9 | 0.00 | 0.00 | 0.00 | 91 | 1010.0 |
| 20260507024551 | 13 | 131 | 22.5 | 48.3 | 0.00 | 0.00 | 0.00 | 90 | 1010.1 |
| 20260507024044 | 14 | 144 | 25.7 | 48.3 | 0.00 | 0.00 | 0.00 | 90 | 1010.2 |
| 20260507023543 | 14 | 102 | 22.5 | 57.9 | 0.00 | 0.00 | 0.00 | 90 | 1010.2 |
| 20260507023103 | 14 | 164 | 20.9 | 57.9 | 0.00 | 0.00 | 0.00 | 90 | 1010.5 |
| 20260507022545 | 13 | 165 | 17.7 | 51.5 | 0.00 | 0.00 | 0.00 | 90 | 1010.7 |
| 20260507022043 | 13 | 132 | 20.9 | 51.5 | 0.00 | 0.00 | 0.00 | 90 | 1010.7 |
| 20260507021553 | 13 | 148 | 20.9 | 46.7 | 0.00 | 0.00 | 0.00 | 90 | 1010.8 |
| 20260507021044 | 13 | 145 | 20.9 | 41.8 | 0.00 | 0.00 | 0.00 | 90 | 1010.7 |
| 20260507020545 | 13 | 134 | 20.9 | 46.7 | 0.00 | 0.00 | 0.00 | 90 | 1010.7 |
| 20260507020050 | 13 | 138 | 20.9 | 46.7 | 0.00 | 0.00 | 0.00 | 90 | 1010.8 |
| 20260507015544 | 13 | 170 | 20.9 | 46.7 | 0.00 | 0.00 | 0.00 | 90 | 1011.0 |
| 20260507015044 | 13 | 175 | 22.5 | 48.3 | 0.00 | 0.00 | 0.00 | 90 | 1011.3 |
| 20260507014558 | 13 | 159 | 22.5 | 48.3 | 0.00 | 0.00 | 0.00 | 90 | 1011.1 |
| 20260507014041 | 13 | 138 | 24.1 | 46.7 | 0.00 | 0.00 | 0.00 | 90 | 1011.4 |
| 20260507013543 | 13 | 148 | 22.5 | 46.7 | 0.00 | 0.00 | 0.00 | 90 | 1011.4 |
| 20260507013103 | 13 | 175 | 22.5 | 45.1 | 0.00 | 0.00 | 0.00 | 91 | 1011.5 |
| 20260507012543 | 13 | 111 | 19.3 | 51.5 | 0.00 | 0.00 | 0.00 | 91 | 1011.6 |
| 20260507012044 | 13 | 180 | 24.1 | 56.3 | 0.00 | 0.00 | 0.00 | 91 | 1011.6 |
| 20260507011553 | 13 | 151 | 25.7 | 61.2 | 0.00 | 0.00 | 0.00 | 91 | 1011.6 |
| 20260507011044 | 13 | 171 | 29.0 | 61.2 | 0.00 | 0.00 | 0.00 | 91 | 1011.8 |
| 20260507010545 | 12 | 137 | 22.5 | 45.1 | 0.00 | 0.00 | 0.00 | 91 | 1011.9 |
| 20260507010051 | 12 | 155 | 20.9 | 45.1 | 0.00 | 0.00 | 0.00 | 92 | 1011.9 |
| 20260507005559 | 12 | 110 | 22.5 | 49.9 | 0.00 | 0.00 | 0.00 | 91 | 1011.8 |
| 20260507005045 | 12 | 176 | 22.5 | 53.1 | 0.00 | 0.00 | 0.00 | 91 | 1012.1 |
| 20260507004551 | 12 | 142 | 24.1 | 53.1 | 0.00 | 0.00 | 0.00 | 91 | 1012.1 |
| 20260507004046 | 12 | 144 | 22.5 | 41.8 | 0.00 | 0.00 | 0.00 | 91 | 1012.3 |
| 20260507003544 | 13 | 163 | 20.9 | 40.2 | 0.00 | 0.00 | 0.00 | 91 | 1012.2 |
| 20260507003050 | 13 | 80 | 16.1 | 35.4 | 0.00 | 0.00 | 0.00 | 91 | 1012.2 |
| 20260507002542 | 13 | 145 | 17.7 | 35.4 | 0.00 | 0.00 | 0.00 | 91 | 1012.3 |
| 20260507002043 | 13 | 113 | 19.3 | 41.8 | 0.00 | 0.00 | 0.00 | 91 | 1011.4 |
| 20260507001612 | 13 | 142 | 16.1 | 41.8 | 0.00 | 0.00 | 0.00 | 92 | 1011.7 |
| 20260507001047 | 12 | 128 | 16.1 | 41.8 | 0.00 | 0.00 | 0.00 | 92 | 1011.8 |
| 20260507000545 | 12 | 132 | 19.3 | 46.7 | 0.00 | 0.00 | 0.00 | 92 | 1011.9 |
| 20260507000052 | 12 | 182 | 19.3 | 46.7 | 0.00 | 0.00 | 0.00 | 91 | 1012.4 |
| 20260506235544 | 12 | 171 | 25.7 | 48.3 | 0.00 | 0.00 | 0.00 | 92 | 1012.5 |
| 20260506235044 | 12 | 151 | 27.4 | 48.3 | 0.00 | 0.00 | 0.00 | 93 | 1012.5 |
| 20260506234549 | 12 | 177 | 19.3 | 41.8 | 0.00 | 0.00 | 0.00 | 93 | 1012.6 |
| 20260506234048 | 12 | 130 | 19.3 | 45.1 | 0.00 | 0.00 | 0.00 | 92 | 1012.7 |
| 20260506233544 | 12 | 171 | 22.5 | 53.1 | 0.00 | 0.00 | 0.00 | 92 | 1012.8 |
| 20260506233057 | 12 | 169 | 24.1 | 53.1 | 0.00 | 0.00 | 0.00 | 92 | 1012.7 |
| 20260506232544 | 12 | 138 | 25.7 | 51.5 | 0.00 | 0.00 | 0.00 | 93 | 1013.0 |
| 20260506232044 | 12 | 159 | 25.7 | 45.1 | 0.00 | 0.00 | 0.00 | 93 | 1012.9 |
| 20260506231551 | 12 | 178 | 24.1 | 45.1 | 0.00 | 0.00 | 0.00 | 92 | 1012.9 |
| 20260506231044 | 12 | 169 | 25.7 | 48.3 | 0.00 | 0.00 | 0.00 | 92 | 1013.0 |
| 20260506230544 | 12 | 162 | 22.5 | 48.3 | 0.00 | 0.00 | 0.00 | 92 | 1013.0 |
| 20260506230059 | 12 | 157 | 22.5 | 48.3 | 0.00 | 0.00 | 0.00 | 92 | 1012.8 |
| 20260506225543 | 12 | 127 | 20.9 | 43.5 | 0.00 | 0.00 | 0.00 | 92 | 1012.9 |
| 20260506225043 | 12 | 135 | 20.9 | 48.3 | 0.00 | 0.00 | 0.00 | 92 | 1012.8 |
| 20260506224552 | 12 | 167 | 22.5 | 48.3 | 0.00 | 0.00 | 0.00 | 91 | 1012.9 |
| 20260506224042 | 12 | 187 | 25.7 | 45.1 | 0.00 | 0.00 | 0.00 | 91 | 1012.9 |
| 20260506223547 | 12 | 171 | 25.7 | 45.1 | 0.00 | 0.00 | 0.00 | 91 | 1012.9 |
| 20260506223104 | 12 | 191 | 25.7 | 45.1 | 0.00 | 0.00 | 0.00 | 92 | 1012.8 |
| 20260506222544 | 12 | 134 | 24.1 | 56.3 | 0.00 | 0.00 | 0.00 | 92 | 1012.8 |
| 20260506222044 | 12 | 136 | 19.3 | 56.3 | 0.00 | 0.00 | 0.00 | 91 | 1012.9 |
| 20260506221552 | 12 | 150 | 20.9 | 53.1 | 0.00 | 0.00 | 0.00 | 91 | 1012.9 |
| 20260506221042 | 12 | 176 | 25.7 | 53.1 | 0.00 | 0.00 | 0.00 | 91 | 1013.0 |
| 20260506220544 | 12 | 150 | 24.1 | 49.9 | 0.00 | 0.00 | 0.00 | 91 | 1013.1 |
| 20260506220051 | 12 | 122 | 29.0 | 49.9 | 0.00 | 0.00 | 0.00 | 90 | 1013.2 |
| 20260506215544 | 13 | 175 | 27.4 | 53.1 | 0.00 | 0.00 | 0.00 | 89 | 1013.2 |
| 20260506215043 | 13 | 149 | 25.7 | 53.1 | 0.00 | 0.00 | 0.00 | 90 | 1013.1 |
| 20260506214600 | 13 | 126 | 25.7 | 53.1 | 0.00 | 0.00 | 0.00 | 90 | 1013.1 |
| 20260506214043 | 13 | 121 | 24.1 | 51.5 | 0.00 | 0.00 | 0.00 | 90 | 1013.1 |
| 20260506213545 | 13 | 164 | 30.6 | 51.5 | 0.00 | 0.00 | 0.00 | 91 | 1013.1 |
| 20260506213051 | 13 | 153 | 20.9 | 45.1 | 0.00 | 0.00 | 0.00 | 90 | 1013.1 |
| 20260506212545 | 13 | 144 | 25.7 | 46.7 | 0.00 | 0.00 | 0.00 | 90 | 1013.1 |
| 20260506212049 | 13 | 183 | 20.9 | 46.7 | 0.00 | 0.00 | 0.00 | 90 | 1013.1 |
| 20260506211552 | 13 | 160 | 22.5 | 46.7 | 0.00 | 0.00 | 0.00 | 90 | 1013.2 |
| 20260506211044 | 13 | 174 | 29.0 | 49.9 | 0.00 | 0.00 | 0.00 | 90 | 1013.1 |
| 20260506210545 | 13 | 158 | 27.4 | 49.9 | 0.00 | 0.00 | 0.00 | 90 | 1013.4 |
| 20260506210051 | 13 | 139 | 22.5 | 57.9 | 0.00 | 0.00 | 0.00 | 89 | 1013.5 |
| 20260506205543 | 13 | 150 | 25.7 | 64.4 | 0.00 | 0.00 | 0.00 | 88 | 1013.6 |
| 20260506205044 | 13 | 167 | 27.4 | 64.4 | 0.00 | 0.00 | 0.00 | 89 | 1013.6 |
| 20260506204551 | 13 | 164 | 22.5 | 54.7 | 0.00 | 0.00 | 0.00 | 89 | 1013.7 |
| 20260506204043 | 13 | 167 | 29.0 | 62.8 | 0.00 | 0.00 | 0.00 | 88 | 1013.6 |
| 20260506203543 | 13 | 190 | 25.7 | 67.6 | 0.00 | 0.00 | 0.00 | 88 | 1013.4 |
| 20260506203100 | 13 | 178 | 29.0 | 67.6 | 0.00 | 0.00 | 0.00 | 88 | 1013.5 |
| 20260506202546 | 13 | 153 | 29.0 | 59.5 | 0.00 | 0.00 | 0.00 | 88 | 1013.6 |
| 20260506202043 | 14 | 150 | 27.4 | 56.3 | 0.00 | 0.00 | 0.00 | 87 | 1013.5 |